#timestamp,LO_Frequency,Hit 
1500206415.7,286046902.2,N
1500206435.5,286046907.4,N
1500206455.3,286046906.7,N
1500206475.2,286046903.5,N
1500206495.9,286046899.1,N
1500206515.7,286046900.4,N
1500206535.6,286046898.1,N
1500206555.4,286046892.7,N
1500206575.2,286046889.5,N
1500206595.1,286046889.4,N
1500206596.0,286046889.4,N
1500206615.8,286046892.2,N
1500206635.6,286046890.6,N
1500206655.1,286046888.2,N
1500206656.0,286046888.2,N
1500206675.8,286046889.2,N
1500206695.6,286046887.9,N
1500206715.5,286046885.0,N
1500206735.3,286046884.5,N
1500206755.1,286046885.3,N
1500206775.9,286046881.5,N
1500206795.7,286046880.0,N
1500206815.5,286046882.4,N
1500206835.3,286046880.2,N
1500206855.2,286046881.2,N
1500206875.0,286046877.0,N
1500206875.9,286046877.0,N
1500206895.7,286046877.3,N
1500206915.6,286046879.6,N
1500206935.4,286046877.1,N
1500206955.2,286046875.2,N
1500206975.1,286046875.8,N
1500206976.0,286046875.8,N
1500206995.8,286046873.5,N
1500207015.6,286046876.4,N
1500207035.5,286046872.8,N
1500207055.3,286046872.3,N
1500207075.1,286046872.6,N
1500207095.9,286046870.9,N
1500207115.7,286046871.2,N
1500207135.5,286046868.6,N
1500207155.4,286046867.8,N
1500207175.5,286046867.6,N
1500207195.4,286046869.6,N
1500207215.2,286046867.2,N
1500207235.0,286046867.7,N
1500207235.9,286046867.7,N
1500207255.8,286046865.3,N
1500207275.6,286046865.9,N
1500207295.4,286046865.0,N
1500207315.3,286046862.3,N
1500207335.1,286046869.3,N
1500207336.0,286046869.3,N
1500207355.8,286046874.4,N
1500207375.7,286046874.8,N
1500207395.5,286046877.3,N
1500207415.3,286046879.3,N
1500207435.2,286046875.6,N
1500207455.9,286046878.3,N
1500207475.7,286046884.1,N
1500207495.6,286046888.0,N
1500207515.4,286046881.9,N
1500207535.2,286046877.9,N
1500207555.0,286046871.5,N
1500207556.0,286046871.5,N
1500207575.8,286046867.4,N
1500207595.6,286046866.4,N
1500207615.4,286046865.2,N
1500207635.3,286046860.6,N
1500207655.1,286046861.4,N
1500207675.8,286046860.1,N
1500207695.7,286046859.0,N
1500207715.5,286046856.2,N
1500207735.3,286046857.5,N
1500207755.2,286046858.5,N
1500207775.9,286046857.4,N
1500207795.7,286046857.8,N
1500207815.6,286046856.8,N
1500207835.4,286046856.1,N
1500207855.2,286046856.4,N
1500207875.1,286046855.0,N
1500207876.0,286046855.0,N
1500207895.8,286046852.7,N
1500207915.6,286046852.7,N
1500207935.5,286046849.8,N
1500207955.3,286046850.7,N
1500207975.1,286046850.0,N
1500207995.8,286046849.5,N
1500208015.7,286046850.6,N
1500208035.5,286046848.1,N
1500208055.3,286046848.7,N
1500208075.2,286046846.9,N
1500208095.0,286046846.9,N
1500208095.9,286046846.9,N
1500208115.7,286046849.2,N
1500208135.6,286046845.4,N
1500208155.4,286046843.0,N
1500208175.2,286046843.7,N
1500208195.1,286046842.0,N
1500208196.0,286046842.0,N
1500208215.8,286046842.8,N
1500208235.6,286046841.0,N
1500208255.5,286046840.5,N
1500208275.3,286046840.6,N
1500208295.1,286046841.2,N
1500208315.9,286046837.2,N
1500208335.7,286046838.9,N
1500208355.5,286046840.9,N
1500208375.3,286046838.1,N
1500208395.2,286046838.8,N
1500208415.0,286046839.4,N
1500208415.9,286046839.4,N
1500208435.7,286046835.9,N
1500208455.6,286046839.5,N
1500208475.4,286046847.0,N
1500208495.2,286046851.6,N
1500208515.1,286046852.2,N
1500208516.0,286046852.2,N
1500208535.8,286046847.5,N
1500208555.6,286046840.2,N
1500208575.5,286046839.0,N
1500208595.3,286046836.7,N
1500208615.1,286046837.8,N
1500208635.9,286046838.0,N
1500208655.1,286046833.6,N
1500208675.9,286046833.9,N
1500208695.7,286046832.0,N
1500208715.5,286046830.9,N
1500208735.4,286046831.5,N
1500208755.2,286046831.8,N
1500208775.0,286046831.3,N
1500208775.9,286046831.3,N
1500208795.8,286046831.1,N
1500208815.6,286046827.3,Y
1500208835.4,286046928.4,N
1500208855.3,286046928.4,N
1500208875.1,286046927.9,N
1500208876.0,286046927.9,N
1500208895.8,286046928.1,N
1500208915.7,286046931.3,N
1500208935.5,286046931.1,N
1500208955.3,286046934.8,N
1500208975.2,286046931.4,N
1500208995.9,286046933.0,N
1500209015.7,286046932.1,N
1500209035.6,286046929.9,N
1500209055.4,286046932.3,N
1500209075.2,286046930.0,N
1500209095.0,286046931.4,N
1500209096.0,286046931.4,N
1500209115.8,286046929.6,N
1500209135.8,286046927.9,N
1500209155.7,286046929.0,N
1500209175.5,286046930.7,N
1500209195.3,286046931.8,N
1500209215.2,286046930.3,N
1500209235.9,286046928.4,N
1500209255.7,286046929.1,N
1500209275.6,286046928.2,N
1500209295.4,286046926.2,N
1500209315.2,286046925.6,N
1500209335.1,286046925.8,N
1500209336.0,286046925.8,N
1500209355.8,286046923.5,N
1500209375.6,286046920.2,N
1500209395.5,286046924.2,N
1500209415.3,286046923.2,N
1500209435.1,286046924.2,N
1500209455.9,286046921.1,N
1500209475.7,286046919.3,N
1500209495.6,286046918.5,N
1500209515.5,286046919.6,N
1500209535.3,286046918.7,N
1500209555.1,286046925.9,N
1500209575.9,286046924.6,N
1500209595.7,286046925.8,N
1500209615.5,286046922.6,N
1500209635.4,286046918.4,N
1500209655.2,286046917.3,N
1500209675.0,286046916.7,N
1500209675.9,286046916.7,N
1500209695.8,286046916.1,N
1500209715.6,286046915.4,N
1500209735.4,286046915.5,N
1500209755.3,286046922.6,N
1500209775.1,286046929.1,N
1500209776.0,286046929.1,N
1500209795.8,286046931.3,N
1500209815.7,286046933.6,N
1500209835.5,286046935.3,N
1500209855.3,286046937.1,N
1500209875.2,286046933.7,N
1500209895.9,286046929.0,N
1500209915.7,286046923.3,N
1500209935.6,286046921.2,N
1500209955.4,286046917.0,N
1500209975.2,286046915.2,N
1500209995.1,286046915.4,N
1500209996.0,286046915.4,N
